Overview Statistics Trail Chart Weather Telemetry Raw packets
 

This is the latest recevied weather packets stored in our database for station/object JF7BTK-10. If no packets are shown the sender has not sent any weather packets the latest 10 day(s).

<< 59 60 61 62 63 64 65 >>
Time Temp. Humidity Pressure Rain* Wind** Luminosity Snow
1787905551 22.78° C 70% 1005.2 hPa 0 mm - - -
1787904951 23.33° C 68% 1005.3 hPa 0 mm - - -
1787904786 23.33° C 68% 1005.3 hPa 0 mm - - -
1787904351 23.33° C 67% 1005.2 hPa 0 mm - - -
1787903889 23.33° C 65% 1005.3 hPa 0 mm - - -
1787903151 24.44° C 64% 1005.4 hPa 0 mm - - -
1787902987 24.44° C 64% 1005.2 hPa 0 mm - - -
1787902087 24.44° C 65% 1005.1 hPa 0 mm - - -
1787901951 24.44° C 65% 1005.1 hPa 0 mm - - -
1787901650 24.44° C 64% 1005 hPa 0 mm - - -
1787901187 24.44° C 64% 1004.9 hPa 0 mm - - -
1787901051 24.44° C 65% 1004.9 hPa 0 mm - - -
1787900287 24.44° C 68% 1004.9 hPa 0 mm - - -
1787900152 24.44° C 66% 1004.9 hPa 0 mm - - -
1787899851 24.44° C 66% 1004.7 hPa 0 mm - - -
1787899388 25° C 66% 1004.8 hPa 0 mm - - -
1787898488 24.44° C 69% 1004.5 hPa 0 mm - - -
1787898351 24.44° C 69% 1004.4 hPa 0 mm - - -
1787898052 24.44° C 69% 1004.4 hPa 0 mm - - -
1787897751 24.44° C 67% 1004.6 hPa 0 mm - - -
1787897588 25° C 68% 1004.4 hPa 0 mm - - -
1787896688 25° C 67% 1004.5 hPa 0 mm - - -
1787895788 25° C 66% 1004.1 hPa 0 mm - - -
1787894889 25.56° C 66% 1003.9 hPa 0 mm - - -
1787893988 26.11° C 62% 1003.9 hPa 0 mm - - -

* Rain latest hour (hover to see other rain measurements)
** Current wind speed in m/s (hover to see current wind gust speed)